Printer-friendly version

IAU Minor Planet Center

Minor Planet Center

MPEC 1999-L17: 1999 LV1

The following Minor Planet Electronic Circular may be linked-to from your own Web pages, but must not otherwise be redistributed electronically.


Read MPEC 1999-L16 Read MPEC 1999-L18


M.P.E.C. 1999-L17                                Issued 1999 June  9, 22:15 UT

     The Minor Planet Electronic Circulars contain information on unusual
         minor planets and routine data on comets.  They are published
   on behalf of Commission 20 of the International Astronomical Union by the
          Minor Planet Center, Smithsonian Astrophysical Observatory,
                          Cambridge, MA 02138, U.S.A.

             BMARSDEN@CFA.HARVARD.EDU or GWILLIAMS@CFA.HARVARD.EDU
          URL http://cfa-www.harvard.edu/iau/mpc.html  ISSN 1523-6714

                                   1999 LV1

Observations:
     J99L01V* C1999 06 04.16615 09 38 56.29 +38 08 27.9          18.4        704
     J99L01V  C1999 06 04.17431 09 38 57.46 +38 08 20.9          19.1        704
     J99L01V  C1999 06 04.18237 09 38 58.58 +38 08 12.5          18.8        704
     J99L01V  C1999 06 04.19042 09 38 59.72 +38 08 07.4          18.8        704
     J99L01V  C1999 06 04.19849 09 39 00.92 +38 07 58.7          19.4        704
     J99L01V  C1999 06 05.18266 09 41 22.19 +37 53 25.9          17.8 R      734
     J99L01V  C1999 06 05.18959 09 41 23.21 +37 53 19.6          18.5 R      734
     J99L01V  C1999 06 05.19359 09 41 23.74 +37 53 14.6          18.6 R      734
     J99L01V  C1999 06 05.86168 09 42 59.64 +37 43 17.2                      046
     J99L01V  C1999 06 05.87050 09 43 00.92 +37 43 09.0                      046
     J99L01V  C1999 06 05.87436 09 43 01.42 +37 43 06.0          17.6 R      046
     J99L01V FC1999 06 06.37403 09 44 13.21 +37 35 42.6          18.8 R      426
     J99L01V FC1999 06 06.37735 09 44 13.65 +37 35 38.1          18.4 R      426
     J99L01V  C1999 06 07.17562 09 46 08.10 +37 23 30.3          18.6        704
     J99L01V  C1999 06 07.17567 09 46 08.06 +37 23 30.2          18.7        704
     J99L01V  C1999 06 07.18595 09 46 09.54 +37 23 20.1          18.9        704
     J99L01V  C1999 06 07.18600 09 46 09.58 +37 23 20.3          19.0        704
     J99L01V  C1999 06 07.19570 09 46 10.96 +37 23 11.8          19.1        704
     J99L01V  C1999 06 07.19576 09 46 10.95 +37 23 12.1          19.6        704
     J99L01V  C1999 06 07.20546 09 46 12.20 +37 23 01.6          19.4        704
     J99L01V  C1999 06 07.20551 09 46 12.35 +37 23 02.8          19.2        704
     J99L01V  C1999 06 07.21522 09 46 13.80 +37 22 54.4          19.8        704
     J99L01V  C1999 06 07.21528 09 46 13.72 +37 22 53.3          19.9        704
     J99L01V  C1999 06 08.15718 09 48 28.69 +37 08 32.1          18.8        704
     J99L01V  C1999 06 08.16749 09 48 30.28 +37 08 23.9          19.1        704
     J99L01V  C1999 06 08.17748 09 48 31.69 +37 08 14.7          18.9        704
     J99L01V  C1999 06 08.18749 09 48 33.04 +37 08 03.6          18.2        704
     J99L01V  C1999 06 08.19748 09 48 34.49 +37 07 55.8          19.0        704
     J99L01V  C1999 06 08.87720 09 50 11.75 +36 57 29.8                      587
     J99L01V  C1999 06 08.88771 09 50 13.75 +36 57 18.5                      587
     J99L01V  C1999 06 09.86856 09 52 34.13 +36 42 05.6                      557
     J99L01V  C1999 06 09.87183 09 52 34.60 +36 42 02.7                      557

Observer details:
046 Klet.  Observers J. Ticha, M. Tichy.  Measurer M. Tichy.  0.57-m f/5.2
    reflector + CCD.
426 Woomera.  Observer F. B. Zoltowski.  0.30-m f/3.3 Schmidt-Cassegrain + CCD.
557 Ondrejov.  Observers L. Sarounova, P. Kusnirak.  0.65-m f/3.6 reflector
    + CCD.
587 Sormano.  Observers F. Manca, A. Testa.  0.5-m reflector + CCD.
704 Lincoln Laboratory ETS, New Mexico.  Observers M. Blythe, F. Shelly,
    M. Bezpalko, M. Elowitz.  Measurers J. Stuart, H. Viggh, R. Sayer.  1.0-m
    f/2.15 reflector + CCD.
734 Farpoint Observatory.  Observers G. Hug, G. Bell.  0.30-m
    Schmidt-Cassegrain + CCD.

Orbital elements:
1999 LV1
Epoch 1999 May 22.0 TT = JDT 2451320.5                  Williams
M 354.10002              (2000.0)            P               Q
n   0.13801940     Peri.   98.25348     -0.90306870     -0.06173467
a   3.7083094      Node    79.00442     -0.14363052     -0.88923033
e   0.4711755      Incl.   25.65714     +0.40476807     -0.45327504
P   7.14           H   14.3           G   0.15
From 32 observations 1999 June 4-9.

Ephemeris:
1999 LV1                 a,e,i = 3.71, 0.47, 26                  q = 1.9610
Date    TT    R. A. (2000) Decl.     Delta      r     Elong.  Phase     V
1999 06 01    09 31.37   +38 54.3    2.191    1.980    64.6    27.5    18.7
1999 06 06    09 43.33   +37 41.3    2.221    1.975    62.8    27.2    18.7
1999 06 11    09 55.27   +36 24.4    2.251    1.970    61.0    26.8    18.7
1999 06 16    10 07.18   +35 04.0    2.281    1.967    59.3    26.4    18.8
1999 06 21    10 19.02   +33 40.3    2.311    1.964    57.6    25.9    18.8
1999 06 26    10 30.78   +32 13.5    2.341    1.962    55.9    25.4    18.8
1999 07 01    10 42.44   +30 43.9    2.372    1.961    54.3    24.9    18.8
1999 07 06    10 54.00   +29 11.7    2.402    1.961    52.7    24.4    18.8
1999 07 11    11 05.44   +27 37.3    2.433    1.962    51.1    23.8    18.8
1999 07 16    11 16.77   +26 01.0    2.464    1.964    49.6    23.2    18.8
1999 07 21    11 27.99   +24 23.1    2.496    1.966    48.0    22.6    18.8

Gareth V. Williams           (C) Copyright 1999 MPC           M.P.E.C. 1999-L17

Read MPEC 1999-L16 Read MPEC 1999-L18


Our Web policy. Index to the CBAT/MPC/ICQ pages.


Valid HTML 4.01!